KAL361 RKSS-ZSPD

Flight info

Callsign KAL361
Flight time 1h 34m
Altitude 38000
Route BULTI2T BULTI Y711 PONIK A593 LAMEN/K0928F280 A593 AKARA/K0924S0840 A593 PUD DCT
Aircraft B77W/H-SDE1E2E3FGIJ1J3J5J7M1M3PRWXYZ/LB1

Departure

Time 2026-04-30 13:00
Airport Gimpo International Airport (RKSS)

Arrival

Time 2026-04-30 14:34
Airport Shanghai Pudong International Airport (ZSPD)
Time Latitude Longitude Altitude Speed Heading
2026-04-30 12:33 37.56542 126.79875 63 ft 0 kts 136°
2026-04-30 12:47 37.56551 126.79864 63 ft 2 kts 136°
2026-04-30 12:47 37.56562 126.79851 63 ft 2 kts 136°
2026-04-30 12:47 37.56573 126.79838 64 ft 2 kts 136°
2026-04-30 12:47 37.56583 126.79825 64 ft 2 kts 137°
2026-04-30 12:48 37.56596 126.79814 64 ft 2 kts 166°
2026-04-30 12:48 37.56611 126.79813 64 ft 2 kts 190°
2026-04-30 12:48 37.56624 126.79819 64 ft 2 kts 214°
2026-04-30 12:48 37.56631 126.79826 64 ft 1 kts 226°
2026-04-30 12:49 37.56633 126.79828 64 ft 0 kts 225°
2026-04-30 12:52 37.56626 126.79820 64 ft 6 kts 225°
2026-04-30 12:53 37.56585 126.79767 64 ft 9 kts 225°
2026-04-30 12:53 37.56536 126.79709 64 ft 10 kts 223°
2026-04-30 12:53 37.56484 126.79645 64 ft 10 kts 225°
2026-04-30 12:53 37.56429 126.79577 64 ft 11 kts 225°
2026-04-30 12:54 37.56371 126.79504 64 ft 12 kts 225°
2026-04-30 12:54 37.56298 126.79411 64 ft 15 kts 226°
2026-04-30 12:54 37.56225 126.79318 64 ft 11 kts 225°
2026-04-30 12:54 37.56178 126.79275 64 ft 7 kts 192°
2026-04-30 12:55 37.56128 126.79302 64 ft 9 kts 132°
2026-04-30 12:55 37.56047 126.79408 64 ft 18 kts 135°
2026-04-30 12:55 37.55955 126.79524 64 ft 18 kts 135°
2026-04-30 12:55 37.55860 126.79642 64 ft 19 kts 135°
2026-04-30 12:56 37.55767 126.79759 64 ft 19 kts 135°
2026-04-30 12:56 37.55673 126.79876 64 ft 19 kts 135°
2026-04-30 12:56 37.55579 126.79994 63 ft 19 kts 135°
2026-04-30 12:56 37.55479 126.80120 60 ft 21 kts 135°
2026-04-30 12:57 37.55369 126.80258 55 ft 23 kts 135°
2026-04-30 12:57 37.55253 126.80404 53 ft 22 kts 135°
2026-04-30 12:57 37.55189 126.80484 53 ft 7 kts 135°
2026-04-30 12:57 37.55139 126.80494 53 ft 9 kts 206°
2026-04-30 12:58 37.55077 126.80427 53 ft 12 kts 224°
2026-04-30 12:58 37.55014 126.80348 54 ft 12 kts 226°
2026-04-30 12:58 37.54955 126.80271 55 ft 12 kts 224°
2026-04-30 12:58 37.54892 126.80195 56 ft 14 kts 224°
2026-04-30 12:59 37.54842 126.80125 57 ft 7 kts 241°
2026-04-30 12:59 37.54842 126.80061 57 ft 8 kts 297°
2026-04-30 12:59 37.54940 126.79926 57 ft 49 kts 315°
2026-04-30 12:59 37.55365 126.79393 59 ft 120 kts 315°
2026-04-30 13:00 37.56111 126.78459 145 ft 172 kts 314°
2026-04-30 13:00 37.56969 126.77396 817 ft 176 kts 314°
2026-04-30 13:00 37.57832 126.76316 1698 ft 179 kts 314°
2026-04-30 13:00 37.58708 126.75206 2397 ft 183 kts 315°
2026-04-30 13:01 37.59553 126.73964 2860 ft 194 kts 298°
2026-04-30 13:01 37.59747 126.72214 3166 ft 217 kts 259°
2026-04-30 13:01 37.59011 126.70479 3509 ft 241 kts 227°
2026-04-30 13:01 37.57479 126.69402 3854 ft 266 kts 193°
2026-04-30 13:02 37.55616 126.69421 4420 ft 275 kts 174°
2026-04-30 13:02 37.53708 126.69710 5255 ft 275 kts 172°
2026-04-30 13:02 37.51820 126.70010 5983 ft 278 kts 172°
2026-04-30 13:02 37.49903 126.70314 6776 ft 278 kts 172°
2026-04-30 13:03 37.47997 126.70616 7537 ft 278 kts 172°
2026-04-30 13:03 37.46084 126.70920 8272 ft 279 kts 171°
2026-04-30 13:03 37.44155 126.71226 9038 ft 279 kts 172°
2026-04-30 13:03 37.42229 126.71530 9740 ft 281 kts 171°
2026-04-30 13:04 37.40290 126.71838 10361 ft 285 kts 172°
2026-04-30 13:04 37.38295 126.72155 10700 ft 300 kts 172°
2026-04-30 13:04 37.36142 126.72497 11031 ft 317 kts 172°
2026-04-30 13:04 37.33915 126.72850 11387 ft 331 kts 172°
2026-04-30 13:05 37.31579 126.73220 11762 ft 345 kts 172°
2026-04-30 13:05 37.29132 126.73608 12164 ft 360 kts 172°
2026-04-30 13:05 37.26604 126.74007 12615 ft 373 kts 172°
2026-04-30 13:06 37.21388 126.74828 14139 ft 382 kts 172°
2026-04-30 13:06 37.18792 126.75236 15106 ft 383 kts 172°
2026-04-30 13:06 37.16130 126.75655 16015 ft 386 kts 172°
2026-04-30 13:06 37.13476 126.76070 16892 ft 389 kts 172°
2026-04-30 13:07 37.10774 126.76495 17679 ft 393 kts 172°
2026-04-30 13:07 37.08048 126.76922 18507 ft 396 kts 173°
2026-04-30 13:07 37.05312 126.77350 19343 ft 399 kts 173°
2026-04-30 13:07 37.02560 126.77781 20167 ft 402 kts 173°
2026-04-30 13:08 36.99803 126.78211 20999 ft 404 kts 173°
2026-04-30 13:08 36.97003 126.78648 21803 ft 405 kts 173°
2026-04-30 13:08 36.94234 126.79081 22542 ft 408 kts 173°
2026-04-30 13:08 36.91375 126.79527 23243 ft 411 kts 173°
2026-04-30 13:09 36.88557 126.79965 23898 ft 414 kts 173°
2026-04-30 13:09 36.85698 126.80410 24591 ft 416 kts 173°
2026-04-30 13:09 36.82787 126.80863 25187 ft 419 kts 174°
2026-04-30 13:09 36.79874 126.81316 25750 ft 423 kts 173°
2026-04-30 13:10 36.76944 126.81770 26309 ft 426 kts 174°
2026-04-30 13:10 36.73986 126.82229 26879 ft 429 kts 174°
2026-04-30 13:10 36.70986 126.82549 27462 ft 431 kts 179°
2026-04-30 13:10 36.67939 126.82675 28029 ft 434 kts 179°
2026-04-30 13:11 36.64922 126.82789 28564 ft 438 kts 180°
2026-04-30 13:11 36.61866 126.82905 29150 ft 440 kts 180°
2026-04-30 13:11 36.58815 126.83021 29781 ft 441 kts 180°
2026-04-30 13:11 36.55747 126.83138 30522 ft 438 kts 180°
2026-04-30 13:12 36.52704 126.83253 31166 ft 436 kts 181°
2026-04-30 13:12 36.49652 126.83367 31649 ft 439 kts 181°
2026-04-30 13:12 36.46606 126.83482 32109 ft 439 kts 181°
2026-04-30 13:13 36.40508 126.83709 32876 ft 442 kts 181°
2026-04-30 13:13 36.37430 126.83649 33191 ft 442 kts 187°
2026-04-30 13:13 36.31314 126.82993 34073 ft 441 kts 188°
2026-04-30 13:14 36.28285 126.82661 34574 ft 440 kts 188°
2026-04-30 13:14 36.25231 126.82326 34990 ft 441 kts 188°
2026-04-30 13:14 36.19120 126.81658 35754 ft 442 kts 189°
2026-04-30 13:15 36.16031 126.81322 36116 ft 443 kts 189°
2026-04-30 13:15 36.09920 126.80657 36807 ft 444 kts 189°
2026-04-30 13:15 36.06851 126.80324 37072 ft 445 kts 189°
2026-04-30 13:16 36.03761 126.79988 37335 ft 446 kts 189°
2026-04-30 13:16 36.00644 126.79650 37630 ft 446 kts 189°
2026-04-30 13:16 35.97579 126.79318 37894 ft 447 kts 189°
2026-04-30 13:17 35.88273 126.78312 37964 ft 446 kts 189°
2026-04-30 13:18 35.78976 126.77304 37960 ft 445 kts 189°
2026-04-30 13:18 35.69717 126.76303 37965 ft 446 kts 190°
2026-04-30 13:19 35.63533 126.75636 37966 ft 446 kts 190°
2026-04-30 13:19 35.57370 126.74973 37963 ft 445 kts 190°
2026-04-30 13:20 35.51173 126.74307 37960 ft 446 kts 190°
2026-04-30 13:20 35.45025 126.73647 37959 ft 446 kts 190°
2026-04-30 13:21 35.38838 126.72985 37956 ft 446 kts 190°
2026-04-30 13:22 35.29598 126.71999 37961 ft 444 kts 190°
2026-04-30 13:22 35.20342 126.71011 37964 ft 447 kts 190°
2026-04-30 13:23 35.11121 126.70033 37959 ft 443 kts 191°
2026-04-30 13:24 34.98843 126.68729 37964 ft 443 kts 191°
2026-04-30 13:25 34.86507 126.67423 37970 ft 444 kts 191°
2026-04-30 13:26 34.71188 126.65807 37964 ft 442 kts 191°
2026-04-30 13:28 34.55895 126.64200 37974 ft 442 kts 191°
2026-04-30 13:28 34.46694 126.63236 37981 ft 442 kts 191°
2026-04-30 13:29 34.34495 126.61961 37967 ft 441 kts 191°
2026-04-30 13:31 34.19219 126.60370 37975 ft 439 kts 192°
2026-04-30 13:32 34.04044 126.58790 37970 ft 438 kts 192°
2026-04-30 13:33 33.91872 126.57527 37973 ft 438 kts 192°
2026-04-30 13:34 33.82893 126.56138 37986 ft 424 kts 204°
2026-04-30 13:35 33.71752 126.51360 37993 ft 425 kts 206°
2026-04-30 13:36 33.60681 126.46564 37989 ft 425 kts 206°
2026-04-30 13:36 33.52414 126.42993 37987 ft 424 kts 206°
2026-04-30 13:37 33.44137 126.39426 37989 ft 420 kts 206°
2026-04-30 13:38 33.35867 126.35870 37988 ft 421 kts 206°
2026-04-30 13:39 33.24854 126.31145 38003 ft 419 kts 206°
2026-04-30 13:40 33.16627 126.27624 37995 ft 416 kts 206°
2026-04-30 13:40 33.11200 126.25304 38003 ft 419 kts 207°
2026-04-30 13:41 33.05675 126.22945 38011 ft 418 kts 207°
2026-04-30 13:41 33.00201 126.20612 38010 ft 420 kts 206°
2026-04-30 13:42 32.94792 126.18293 37991 ft 414 kts 207°
2026-04-30 13:42 32.86600 126.14774 38022 ft 417 kts 207°
2026-04-30 13:43 32.81133 126.12433 38008 ft 416 kts 207°
2026-04-30 13:43 32.75650 126.10086 38024 ft 418 kts 207°
2026-04-30 13:44 32.70251 126.07782 38022 ft 412 kts 207°
2026-04-30 13:44 32.64825 126.05465 38013 ft 416 kts 207°
2026-04-30 13:45 32.56690 126.02000 38005 ft 414 kts 208°
2026-04-30 13:46 32.51254 125.99689 38009 ft 413 kts 208°
2026-04-30 13:46 32.45879 125.97407 38002 ft 411 kts 208°
2026-04-30 13:47 32.40506 125.95130 38019 ft 412 kts 207°
2026-04-30 13:47 32.35136 125.92860 38009 ft 407 kts 208°
2026-04-30 13:48 32.29811 125.90608 38014 ft 407 kts 208°
2026-04-30 13:48 32.24468 125.88353 38019 ft 408 kts 208°
2026-04-30 13:49 32.19151 125.86113 38000 ft 405 kts 208°
2026-04-30 13:49 32.13813 125.83863 38012 ft 408 kts 208°
2026-04-30 13:50 32.08487 125.81624 38010 ft 407 kts 209°
2026-04-30 13:50 32.03694 125.78427 38004 ft 392 kts 226°
2026-04-30 13:50 32.01765 125.76196 37998 ft 383 kts 233°
2026-04-30 13:51 31.99059 125.70877 38014 ft 381 kts 248°
2026-04-30 13:51 31.97601 125.64875 38013 ft 382 kts 253°
2026-04-30 13:52 31.96266 125.58862 38019 ft 383 kts 253°
2026-04-30 13:52 31.94917 125.52810 38003 ft 382 kts 253°
2026-04-30 13:53 31.93566 125.46767 38004 ft 386 kts 253°
2026-04-30 13:53 31.92203 125.40682 38020 ft 386 kts 253°
2026-04-30 13:54 31.90835 125.34595 38018 ft 387 kts 253°
2026-04-30 13:54 31.89452 125.28453 38047 ft 388 kts 253°
2026-04-30 13:55 31.88073 125.22343 38046 ft 387 kts 253°
2026-04-30 13:55 31.86682 125.16202 38035 ft 389 kts 253°
2026-04-30 13:56 31.85293 125.10077 38049 ft 390 kts 254°
2026-04-30 13:56 31.83901 125.03957 38045 ft 389 kts 253°
2026-04-30 13:57 31.82514 124.97812 38038 ft 390 kts 255°
2026-04-30 13:57 31.81187 124.91641 38041 ft 389 kts 255°
2026-04-30 13:58 31.79193 124.82417 38038 ft 389 kts 254°
2026-04-30 13:59 31.77859 124.76274 38030 ft 389 kts 255°
2026-04-30 13:59 31.76518 124.70119 38042 ft 391 kts 255°
2026-04-30 14:00 31.75171 124.63950 38046 ft 389 kts 255°
2026-04-30 14:00 31.73147 124.54720 38038 ft 392 kts 255°
2026-04-30 14:01 31.71798 124.48581 38044 ft 389 kts 255°
2026-04-30 14:01 31.70446 124.42446 38039 ft 390 kts 255°
2026-04-30 14:02 31.69087 124.36295 38042 ft 392 kts 255°
2026-04-30 14:02 31.67715 124.30100 38064 ft 391 kts 255°
2026-04-30 14:03 31.66357 124.23987 38051 ft 388 kts 255°
2026-04-30 14:03 31.64989 124.17839 38067 ft 391 kts 255°
2026-04-30 14:04 31.63617 124.11687 38070 ft 389 kts 255°
2026-04-30 14:04 31.62254 124.05598 38071 ft 389 kts 255°
2026-04-30 14:05 31.60875 123.99444 38066 ft 391 kts 255°
2026-04-30 14:05 31.59542 123.93336 38071 ft 388 kts 255°
2026-04-30 14:06 31.57532 123.84136 38065 ft 390 kts 256°
2026-04-30 14:07 31.55505 123.74904 37895 ft 384 kts 256°
2026-04-30 14:07 31.54847 123.71912 37203 ft 384 kts 256°
2026-04-30 14:08 31.53504 123.65820 35466 ft 389 kts 256°
2026-04-30 14:08 31.52830 123.62768 34616 ft 391 kts 256°
2026-04-30 14:08 31.51475 123.56647 32902 ft 394 kts 257°
2026-04-30 14:09 31.50784 123.53529 32039 ft 397 kts 257°
2026-04-30 14:09 31.50084 123.50378 31143 ft 400 kts 257°
2026-04-30 14:09 31.48868 123.44176 30008 ft 388 kts 259°
2026-04-30 14:10 31.48292 123.41088 29449 ft 383 kts 259°
2026-04-30 14:10 31.47733 123.38112 28856 ft 378 kts 260°
2026-04-30 14:10 31.47168 123.35114 28280 ft 375 kts 260°
2026-04-30 14:10 31.46596 123.32085 27725 ft 386 kts 260°
2026-04-30 14:11 31.46015 123.29020 27126 ft 390 kts 259°
2026-04-30 14:11 31.45429 123.25942 26510 ft 387 kts 259°
2026-04-30 14:11 31.44847 123.22894 25900 ft 381 kts 260°
2026-04-30 14:11 31.44281 123.19936 25299 ft 376 kts 260°
2026-04-30 14:12 31.43715 123.16981 24689 ft 371 kts 260°
2026-04-30 14:12 31.43153 123.14052 24096 ft 366 kts 260°
2026-04-30 14:12 31.42598 123.11159 23500 ft 361 kts 261°
2026-04-30 14:12 31.42237 123.09284 23105 ft 358 kts 261°
2026-04-30 14:13 31.41515 123.05533 22324 ft 353 kts 261°
2026-04-30 14:13 31.40979 123.02750 21721 ft 349 kts 261°
2026-04-30 14:13 31.40454 123.00028 21136 ft 346 kts 261°
2026-04-30 14:13 31.39917 122.97237 20543 ft 357 kts 261°
2026-04-30 14:14 31.39370 122.94406 19918 ft 360 kts 262°
2026-04-30 14:14 31.38820 122.91572 19298 ft 357 kts 262°
2026-04-30 14:14 31.38278 122.88783 18691 ft 354 kts 262°
2026-04-30 14:14 31.37734 122.85986 18088 ft 352 kts 262°
2026-04-30 14:15 31.37196 122.83217 17491 ft 352 kts 262°
2026-04-30 14:15 31.36653 122.80421 16862 ft 353 kts 262°
2026-04-30 14:15 31.36104 122.77611 16237 ft 351 kts 262°
2026-04-30 14:15 31.35579 122.74879 15643 ft 347 kts 262°
2026-04-30 14:16 31.35060 122.72142 15044 ft 346 kts 262°
2026-04-30 14:16 31.34536 122.69378 14438 ft 346 kts 262°
2026-04-30 14:16 31.34021 122.66675 13836 ft 344 kts 262°
2026-04-30 14:16 31.33500 122.63944 13233 ft 343 kts 262°
2026-04-30 14:17 31.32978 122.61213 12634 ft 343 kts 262°
2026-04-30 14:17 31.32462 122.58514 12039 ft 342 kts 262°
2026-04-30 14:17 31.31951 122.55846 11445 ft 341 kts 262°
2026-04-30 14:17 31.31431 122.53138 10850 ft 339 kts 262°
2026-04-30 14:18 31.30923 122.50510 10708 ft 322 kts 262°
2026-04-30 14:18 31.30445 122.48033 10601 ft 307 kts 262°
2026-04-30 14:18 31.29845 122.43343 10297 ft 275 kts 278°
2026-04-30 14:19 31.30298 122.39128 10053 ft 251 kts 282°
2026-04-30 14:19 31.30540 122.37168 9893 ft 243 kts 282°
2026-04-30 14:19 31.30782 122.35200 9529 ft 243 kts 282°
2026-04-30 14:20 31.31021 122.33237 9177 ft 243 kts 282°
2026-04-30 14:20 31.31256 122.31303 8854 ft 242 kts 282°
2026-04-30 14:20 31.31728 122.27418 8209 ft 241 kts 282°
2026-04-30 14:21 31.31960 122.25499 7890 ft 240 kts 282°
2026-04-30 14:21 31.32195 122.23555 7577 ft 239 kts 282°
2026-04-30 14:21 31.32657 122.19722 6967 ft 238 kts 282°
2026-04-30 14:22 31.32885 122.17834 6666 ft 237 kts 282°
2026-04-30 14:22 31.33342 122.14034 6068 ft 235 kts 282°
2026-04-30 14:22 31.33569 122.12143 5778 ft 234 kts 282°
2026-04-30 14:23 31.34031 122.08295 5187 ft 244 kts 282°
2026-04-30 14:23 31.34496 122.04392 4585 ft 242 kts 281°
2026-04-30 14:24 31.34956 122.00532 4014 ft 239 kts 281°
2026-04-30 14:24 31.35185 121.98606 3725 ft 237 kts 281°
2026-04-30 14:25 31.35938 121.94928 3155 ft 231 kts 299°
2026-04-30 14:25 31.37497 121.91663 2867 ft 234 kts 300°
2026-04-30 14:26 31.39034 121.88464 2873 ft 217 kts 300°
2026-04-30 14:26 31.39778 121.86918 2876 ft 215 kts 300°
2026-04-30 14:26 31.41246 121.83865 2875 ft 216 kts 300°
2026-04-30 14:27 31.41974 121.82305 2865 ft 216 kts 294°
2026-04-30 14:27 31.42150 121.80599 2863 ft 214 kts 262°
2026-04-30 14:27 31.41737 121.78989 2812 ft 201 kts 255°
2026-04-30 14:28 31.40829 121.76073 2583 ft 185 kts 238°
2026-04-30 14:28 31.39806 121.75179 2368 ft 185 kts 198°
2026-04-30 14:28 31.38534 121.74857 2253 ft 190 kts 195°
2026-04-30 14:28 31.37242 121.74545 2125 ft 188 kts 195°
2026-04-30 14:29 31.34638 121.74641 1972 ft 192 kts 166°
2026-04-30 14:29 31.32079 121.75581 1966 ft 192 kts 163°
2026-04-30 14:30 31.28252 121.77025 1968 ft 192 kts 164°
2026-04-30 14:31 31.25820 121.77939 1954 ft 170 kts 164°
2026-04-30 14:31 31.23674 121.78745 1626 ft 155 kts 165°
2026-04-30 14:31 31.22644 121.79131 1418 ft 151 kts 164°
2026-04-30 14:32 31.20675 121.79874 1016 ft 148 kts 163°
2026-04-30 14:32 31.19706 121.80228 808 ft 141 kts 164°
2026-04-30 14:32 31.18773 121.80579 608 ft 140 kts 163°
2026-04-30 14:33 31.17841 121.80938 427 ft 140 kts 163°
2026-04-30 14:33 31.16003 121.81619 68 ft 137 kts 162°
2026-04-30 14:33 31.15139 121.81944 26 ft 115 kts 162°
2026-04-30 14:34 31.14465 121.82200 25 ft 87 kts 162°
2026-04-30 14:34 31.14106 121.82315 28 ft 35 kts 179°
2026-04-30 14:34 31.13931 121.82288 28 ft 18 kts 190°
2026-04-30 14:34 31.13827 121.82268 28 ft 14 kts 189°
2026-04-30 14:35 31.13729 121.82272 28 ft 7 kts 163°
2026-04-30 14:35 31.13679 121.82265 28 ft 7 kts 222°
2026-04-30 14:35 31.13653 121.82201 28 ft 9 kts 250°
2026-04-30 14:36 31.13630 121.82121 28 ft 10 kts 252°
2026-04-30 14:36 31.13606 121.82031 28 ft 12 kts 252°
2026-04-30 14:36 31.13585 121.81956 28 ft 7 kts 251°
2026-04-30 14:36 31.13567 121.81892 28 ft 9 kts 257°
2026-04-30 14:37 31.13595 121.81830 28 ft 10 kts 335°
2026-04-30 14:37 31.13670 121.81796 28 ft 12 kts 341°
2026-04-30 14:37 31.13736 121.81769 28 ft 7 kts 332°
2026-04-30 14:37 31.13754 121.81709 28 ft 10 kts 254°
2026-04-30 14:38 31.13731 121.81619 26 ft 12 kts 253°
2026-04-30 14:38 31.13703 121.81516 26 ft 14 kts 252°
2026-04-30 14:38 31.13680 121.81433 25 ft 4 kts 252°
2026-04-30 14:38 31.13669 121.81393 25 ft 4 kts 252°
2026-04-30 14:39 31.13665 121.81377 25 ft 0 kts 252°